• In Kazakhstan
  • List of Countries
  • For 7 days
  • Water Temperature
  • Satellite Maps
  • Weather Map
  • News
  • Weather Widgets
  • user-avatar
    Login

    Hourly Weather La Massana

    Today, 16 November, Friday

    Time Temperature Precipitation Wind Pressure Humidity
    00:00 +4°C° 0 mm 1 mps 612 mmHg 87%
    01:00 +3°C° 0 mm 1 mps 612 mmHg 87%
    02:00 +3°C° 0 mm 1 mps 612 mmHg 87%
    03:00 +3°C° 0 mm 1 mps 612 mmHg 86%
    04:00 +3°C° 0 mm 1 mps 612 mmHg 87%
    05:00 +3°C° 0 mm 1 mps 612 mmHg 87%
    06:00 +2°C° 0 mm 1 mps 612 mmHg 87%
    07:00 +4°C° 0 mm 1 mps 612 mmHg 83%
    08:00 +5°C° 0 mm 1 mps 613 mmHg 79%
    09:00 +7°C° 0 mm 1 mps 614 mmHg 75%
    10:00 +8°C° 0 mm 1 mps 614 mmHg 72%
    11:00 +8°C° 0 mm 2 mps 614 mmHg 69%
    12:00 +9°C° 0 mm 2 mps 615 mmHg 64%
    13:00 +8°C° 0 mm 2 mps 615 mmHg 67%
    14:00 +8°C° 0 mm 2 mps 614 mmHg 70%
    15:00 +8°C° 0 mm 2 mps 614 mmHg 73%
    16:00 +7°C° 0 mm 1 mps 613 mmHg 80%
    17:00 +6°C° 0 mm 1 mps 612 mmHg 87%
    18:00 +4°C° 0 mm 1 mps 612 mmHg 94%
    19:00 +4°C° 0 mm 1 mps 612 mmHg 94%
    20:00 +4°C° 0 mm 1 mps 612 mmHg 93%
    21:00 +4°C° 0 mm 1 mps 612 mmHg 93%
    22:00 +4°C° 0 mm 1 mps 612 mmHg 92%
    23:00 +3°C° 0 mm 1 mps 612 mmHg 92%

    Tomorrow, 17 November, Saturday

    Time Temperature Precipitation Wind Pressure Humidity
    00:00 +3°C° 0 mm 1 mps 611 mmHg 92%
    01:00 +3°C° 0 mm 1 mps 611 mmHg 91%
    02:00 +3°C° 0 mm 1 mps 611 mmHg 91%
    03:00 +3°C° 0 mm 1 mps 611 mmHg 90%
    04:00 +3°C° 0 mm 1 mps 610 mmHg 90%
    05:00 +2°C° 0 mm 1 mps 610 mmHg 90%
    06:00 +2°C° 0 mm 1 mps 610 mmHg 89%
    07:00 +3°C° 0 mm 1 mps 610 mmHg 85%
    08:00 +5°C° 0 mm 1 mps 611 mmHg 81%
    09:00 +6°C° 0 mm 1 mps 611 mmHg 77%
    10:00 +6°C° 0 mm 1 mps 611 mmHg 75%
    11:00 +7°C° 0 mm 1 mps 611 mmHg 72%
    12:00 +7°C° 0 mm 1 mps 611 mmHg 69%
    13:00 +7°C° 0.1 mm 1 mps 610 mmHg 73%
    14:00 +6°C° 0.1 mm 1 mps 610 mmHg 77%
    15:00 +5°C° 0.1 mm 1 mps 609 mmHg 81%
    16:00 +4°C° 0.3 mm 2 mps 609 mmHg 85%
    17:00 +3°C° 0.3 mm 2 mps 608 mmHg 88%
    18:00 +2°C° 0.3 mm 2 mps 608 mmHg 92%
    19:00 +2°C° 0.6 mm 2 mps 608 mmHg 92%
    20:00 +2°C° 0.6 mm 2 mps 608 mmHg 91%
    21:00 0°C° 0.6 mm 3 mps 608 mmHg 91%
    22:00 0°C° 0.8 mm 3 mps 607 mmHg 91%
    23:00 0°C° 0.8 mm 3 mps 607 mmHg 91%

    Day after tomorrow, 18 November, Sunday

    Time Temperature Precipitation Wind Pressure Humidity
    00:00 0°C° 0.8 mm 3 mps 607 mmHg 90%
    01:00 -1°C° 0.9 mm 3 mps 607 mmHg 90%
    02:00 -1°C° 0.9 mm 3 mps 606 mmHg 90%
    03:00 -1°C° 0.9 mm 3 mps 606 mmHg 89%
    04:00 -1°C° 1.1 mm 2 mps 606 mmHg 89%
    05:00 -1°C° 1.1 mm 2 mps 606 mmHg 89%
    06:00 -1°C° 1.1 mm 2 mps 606 mmHg 89%
    07:00 -1°C° 1.2 mm 2 mps 606 mmHg 88%
    08:00 -1°C° 1.2 mm 3 mps 606 mmHg 88%
    09:00 -1°C° 1.2 mm 3 mps 606 mmHg 88%
    10:00 0°C° 0.9 mm 3 mps 606 mmHg 87%
    11:00 0°C° 0.9 mm 3 mps 606 mmHg 87%
    12:00 0°C° 0.9 mm 3 mps 606 mmHg 86%
    13:00 0°C° 0.6 mm 3 mps 606 mmHg 86%
    14:00 +1°C° 0.6 mm 3 mps 606 mmHg 85%
    15:00 +1°C° 0.6 mm 3 mps 606 mmHg 85%
    16:00 0°C° 0.4 mm 3 mps 605 mmHg 87%
    17:00 -1°C° 0.4 mm 3 mps 605 mmHg 88%
    18:00 -1°C° 0.4 mm 3 mps 605 mmHg 90%
    19:00 -1°C° 0.3 mm 3 mps 605 mmHg 90%
    20:00 -1°C° 0.3 mm 2 mps 605 mmHg 90%
    21:00 -1°C° 0.3 mm 2 mps 605 mmHg 90%
    22:00 -1°C° 0.1 mm 2 mps 605 mmHg 90%
    23:00 -1°C° 0.1 mm 2 mps 605 mmHg 90%

    19 November, Monday

    Time Temperature Precipitation Wind Pressure Humidity
    00:00 -1°C° 0.1 mm 2 mps 605 mmHg 90%
    01:00 -1°C° 0 mm 2 mps 605 mmHg 89%
    02:00 -2°C° 0 mm 2 mps 604 mmHg 89%
    03:00 -2°C° 0 mm 2 mps 604 mmHg 89%
    04:00 -2°C° 0 mm 2 mps 604 mmHg 88%
    05:00 -2°C° 0 mm 2 mps 603 mmHg 88%
    06:00 -2°C° 0 mm 2 mps 603 mmHg 87%
    07:00 -1°C° 0 mm 2 mps 604 mmHg 86%
    08:00 +2°C° 0 mm 1 mps 604 mmHg 84%
    09:00 +3°C° 0 mm 1 mps 604 mmHg 83%
    10:00 +4°C° 0 mm 1 mps 604 mmHg 81%
    11:00 +4°C° 0 mm 1 mps 604 mmHg 79%
    12:00 +5°C° 0 mm 1 mps 604 mmHg 77%
    13:00 +5°C° 0 mm 1 mps 604 mmHg 78%
    14:00 +4°C° 0 mm 1 mps 604 mmHg 79%
    15:00 +4°C° 0 mm 1 mps 603 mmHg 80%
    16:00 +2°C° 0 mm 1 mps 602 mmHg 83%
    17:00 +1°C° 0 mm 1 mps 602 mmHg 87%
    18:00 0°C° 0 mm 1 mps 601 mmHg 91%
    19:00 -1°C° 0 mm 1 mps 601 mmHg 88%
    20:00 -3°C° 0 mm 2 mps 601 mmHg 85%
    21:00 -4°C° 0 mm 2 mps 601 mmHg 83%
    22:00 -4°C° 0 mm 2 mps 600 mmHg 78%
    23:00 -5°C° 0 mm 2 mps 600 mmHg 74%

    20 November, Tuesday

    Time Temperature Precipitation Wind Pressure Humidity
    00:00 -5°C° 0 mm 2 mps 600 mmHg 70%
    01:00 -5°C° 0 mm 2 mps 599 mmHg 70%
    02:00 -6°C° 0 mm 2 mps 599 mmHg 71%
    03:00 -6°C° 0 mm 2 mps 599 mmHg 71%
    04:00 -6°C° 0 mm 2 mps 599 mmHg 73%
    05:00 -6°C° 0 mm 2 mps 599 mmHg 75%
    06:00 -6°C° 0 mm 2 mps 599 mmHg 77%
    07:00 -5°C° 0 mm 2 mps 599 mmHg 75%
    08:00 -4°C° 0 mm 2 mps 600 mmHg 74%
    09:00 -2°C° 0 mm 2 mps 601 mmHg 72%
    10:00 -2°C° 0 mm 3 mps 601 mmHg 70%
    11:00 -1°C° 0 mm 3 mps 601 mmHg 68%
    12:00 0°C° 0 mm 3 mps 601 mmHg 66%
    13:00 -1°C° 0 mm 3 mps 601 mmHg 67%
    14:00 -2°C° 0 mm 3 mps 601 mmHg 67%
    15:00 -2°C° 0 mm 3 mps 601 mmHg 68%
    16:00 -5°C° 0 mm 3 mps 600 mmHg 73%
    17:00 -7°C° 0 mm 3 mps 600 mmHg 78%
    18:00 -9°C° 0 mm 3 mps 600 mmHg 83%
    19:00 -9°C° 0 mm 3 mps 600 mmHg 81%
    20:00 -10°C° 0 mm 3 mps 601 mmHg 80%
    21:00 -10°C° 0 mm 3 mps 601 mmHg 78%
    22:00 -10°C° 0 mm 3 mps 601 mmHg 76%
    23:00 -10°C° 0 mm 3 mps 601 mmHg 75%

    21 November, Wednesday

    Time Temperature Precipitation Wind Pressure Humidity
    00:00 -12°C° 0 mm 3 mps 601 mmHg 73%
    01:00 -12°C° 0 mm 3 mps 601 mmHg 72%
    02:00 -12°C° 0 mm 3 mps 601 mmHg 70%
    03:00 -12°C° 0 mm 3 mps 601 mmHg 68%
    04:00 -13°C° 0 mm 3 mps 601 mmHg 68%
    05:00 -13°C° 0 mm 3 mps 601 mmHg 67%
    06:00 -13°C° 0 mm 3 mps 601 mmHg 66%
    07:00 -12°C° 0 mm 3 mps 601 mmHg 63%
    08:00 -10°C° 0 mm 3 mps 602 mmHg 60%
    09:00 -8°C° 0 mm 3 mps 603 mmHg 57%
    10:00 -6°C° 0 mm 2 mps 603 mmHg 54%
    11:00 -5°C° 0 mm 2 mps 604 mmHg 51%
    12:00 -4°C° 0 mm 2 mps 604 mmHg 48%
    13:00 -4°C° 0 mm 2 mps 604 mmHg 51%
    14:00 -4°C° 0 mm 2 mps 604 mmHg 53%
    15:00 -5°C° 0 mm 2 mps 604 mmHg 56%
    16:00 -6°C° 0 mm 2 mps 603 mmHg 62%
    17:00 -8°C° 0 mm 2 mps 603 mmHg 68%
    18:00 -10°C° 0 mm 2 mps 603 mmHg 74%
    19:00 -10°C° 0 mm 2 mps 603 mmHg 72%
    20:00 -9°C° 0 mm 1 mps 603 mmHg 71%
    21:00 -9°C° 0 mm 1 mps 603 mmHg 70%
    22:00 -9°C° 0 mm 1 mps 603 mmHg 69%
    23:00 -9°C° 0 mm 1 mps 603 mmHg 67%
    Show more